This is the latest recevied weather packets stored in our database for station/object KJ5BMY-13. If no packets are shown the sender has not sent any weather packets the latest 1 day(s).
| Time | Temp. | Humidity | Pressure | Rain* | Wind** | Luminosity | Snow |
|---|---|---|---|---|---|---|---|
| 1778051252 | 16.11° C | 76% | 1011.8 hPa | 0 mm | 0.89 m/s, 243° | - | - |
| 1778050949 | 16.11° C | 76% | 1011.9 hPa | 0 mm | 0 m/s | - | - |
| 1778050647 | 16.11° C | 77% | 1011.8 hPa | 0 mm | 0 m/s | - | - |
| 1778050344 | 16.11° C | 76% | 1011.8 hPa | 0 mm | 0.45 m/s, 218° | - | - |
| 1778050040 | 16.11° C | 77% | 1012 hPa | 0 mm | 0 m/s | - | - |
| 1778049736 | 16.11° C | 77% | 1011.7 hPa | 0 mm | 0.89 m/s, 54° | - | - |
| 1778049434 | 16.11° C | 77% | 1011.8 hPa | 0 mm | 0.45 m/s, 199° | - | - |
| 1778049131 | 16.11° C | 76% | 1011.7 hPa | 0 mm | 0.45 m/s, 73° | - | - |
| 1778048830 | 16.11° C | 76% | 1011.7 hPa | 0 mm | 0 m/s | - | - |
| 1778048526 | 16.67° C | 77% | 1011.9 hPa | 0 mm | 0.45 m/s, 228° | - | - |
| 1778048222 | 16.67° C | 76% | 1011.9 hPa | 0 mm | 0.45 m/s, 8° | - | - |
| 1778047920 | 16.67° C | 77% | 1011.8 hPa | 0 mm | 0 m/s | - | - |
| 1778047619 | 16.67° C | 76% | 1011.7 hPa | 0 mm | 0 m/s | - | - |
| 1778047314 | 16.67° C | 76% | 1011.6 hPa | 0 mm | 0 m/s | - | - |
| 1778047012 | 16.67° C | 77% | 1011.7 hPa | 0 mm | 0.45 m/s, 240° | - | - |
| 1778046709 | 16.67° C | 77% | 1011.7 hPa | 0 mm | 0.45 m/s, 322° | - | - |
| 1778046406 | 16.67° C | 77% | 1011.9 hPa | 0 mm | 0.45 m/s, 272° | - | - |
| 1778046101 | 16.67° C | 77% | 1011.6 hPa | 0 mm | 0 m/s | - | - |
| 1778045799 | 17.22° C | 77% | 1011.7 hPa | 0 mm | 0.45 m/s, 287° | - | - |
| 1778045498 | 17.22° C | 77% | 1012 hPa | 0 mm | 0 m/s | - | - |
| 1778045196 | 17.22° C | 77% | 1011.8 hPa | 0 mm | 0.45 m/s, 322° | - | - |
| 1778044894 | 17.22° C | 77% | 1011.6 hPa | 0 mm | 0.45 m/s, 204° | - | - |
| 1778044591 | 17.22° C | 77% | 1011.6 hPa | 0 mm | 0 m/s | - | - |
| 1778044286 | 17.78° C | 77% | 1011.7 hPa | 0 mm | 0.45 m/s, 77° | - | - |
| 1778043985 | 17.78° C | 76% | 1011.5 hPa | 0 mm | 0.89 m/s, 338° | - | - |
* Rain latest hour (hover to see other rain measurements)
** Current wind speed in m/s (hover to see current wind gust speed)